Tiempo cada hora Almegijar

Hoy, 27 Julio, Martes

Tiempo Temperatura Precipitaciones Viento Presión Humedad
00:00 +20°C° 0 mm 1 mps 683 mmHg 76%
01:00 +20°C° 0 mm 1 mps 683 mmHg 78%
02:00 +20°C° 0 mm 1 mps 682 mmHg 80%
03:00 +19°C° 0 mm 1 mps 682 mmHg 82%
04:00 +20°C° 0 mm 1 mps 682 mmHg 79%
05:00 +20°C° 0 mm 1 mps 682 mmHg 76%
06:00 +20°C° 0 mm 1 mps 683 mmHg 74%
07:00 +21°C° 0 mm 2 mps 683 mmHg 66%
08:00 +24°C° 0 mm 2 mps 683 mmHg 59%
09:00 +26°C° 0 mm 2 mps 683 mmHg 52%
10:00 +27°C° 0 mm 3 mps 683 mmHg 48%
11:00 +28°C° 0 mm 3 mps 683 mmHg 44%
12:00 +29°C° 0 mm 3 mps 683 mmHg 40%
13:00 +29°C° 0 mm 3 mps 683 mmHg 40%
14:00 +30°C° 0 mm 3 mps 682 mmHg 41%
15:00 +30°C° 0 mm 3 mps 682 mmHg 41%
16:00 +29°C° 0 mm 3 mps 682 mmHg 43%
17:00 +29°C° 0 mm 2 mps 682 mmHg 45%
18:00 +28°C° 0 mm 2 mps 681 mmHg 47%
19:00 +27°C° 0 mm 1 mps 681 mmHg 52%
20:00 +25°C° 0 mm 1 mps 682 mmHg 58%
21:00 +21°C° 0 mm 0 mps 682 mmHg 64%
22:00 +23°C° 0 mm 1 mps 682 mmHg 64%
23:00 +23°C° 0 mm 1 mps 682 mmHg 65%

Mañana, 28 Julio, Miércoles

Tiempo Temperatura Precipitaciones Viento Presión Humedad
00:00 +22°C° 0 mm 1 mps 681 mmHg 65%
01:00 +22°C° 0 mm 1 mps 681 mmHg 65%
02:00 +22°C° 0 mm 1 mps 681 mmHg 66%
03:00 +21°C° 0 mm 1 mps 681 mmHg 66%
04:00 +22°C° 0 mm 1 mps 681 mmHg 64%
05:00 +22°C° 0 mm 1 mps 681 mmHg 61%
06:00 +23°C° 0 mm 1 mps 681 mmHg 59%
07:00 +25°C° 0 mm 1 mps 681 mmHg 51%
08:00 +27°C° 0 mm 1 mps 682 mmHg 43%
09:00 +29°C° 0 mm 2 mps 682 mmHg 36%
10:00 +30°C° 0 mm 2 mps 682 mmHg 34%
11:00 +31°C° 0 mm 2 mps 682 mmHg 33%
12:00 +33°C° 0 mm 3 mps 682 mmHg 31%
13:00 +33°C° 0 mm 3 mps 682 mmHg 31%
14:00 +33°C° 0 mm 3 mps 682 mmHg 32%
15:00 +33°C° 0 mm 3 mps 682 mmHg 32%
16:00 +31°C° 0 mm 2 mps 682 mmHg 34%
17:00 +31°C° 0 mm 2 mps 682 mmHg 37%
18:00 +30°C° 0 mm 2 mps 682 mmHg 39%
19:00 +28°C° 0 mm 2 mps 682 mmHg 44%
20:00 +26°C° 0 mm 1 mps 682 mmHg 50%
21:00 +25°C° 0 mm 1 mps 682 mmHg 55%
22:00 +24°C° 0 mm 1 mps 682 mmHg 56%
23:00 +24°C° 0 mm 1 mps 682 mmHg 56%

Pasado mañana, 29 Julio, Jueves

Tiempo Temperatura Precipitaciones Viento Presión Humedad
00:00 +23°C° 0 mm 1 mps 682 mmHg 57%
01:00 +23°C° 0 mm 1 mps 682 mmHg 55%
02:00 +23°C° 0 mm 1 mps 682 mmHg 54%
03:00 +23°C° 0 mm 1 mps 681 mmHg 52%
04:00 +23°C° 0 mm 1 mps 681 mmHg 51%
05:00 +23°C° 0 mm 1 mps 682 mmHg 49%
06:00 +24°C° 0 mm 1 mps 682 mmHg 48%
07:00 +26°C° 0 mm 1 mps 682 mmHg 43%
08:00 +28°C° 0 mm 2 mps 683 mmHg 38%
09:00 +30°C° 0 mm 2 mps 683 mmHg 34%
10:00 +31°C° 0 mm 2 mps 684 mmHg 32%
11:00 +33°C° 0 mm 3 mps 684 mmHg 30%
12:00 +34°C° 0 mm 3 mps 684 mmHg 28%
13:00 +34°C° 0 mm 3 mps 684 mmHg 25%
14:00 +35°C° 0 mm 4 mps 683 mmHg 22%
15:00 +35°C° 0 mm 4 mps 683 mmHg 19%
16:00 +35°C° 0 mm 4 mps 683 mmHg 20%
17:00 +34°C° 0 mm 3 mps 683 mmHg 21%
18:00 +33°C° 0 mm 3 mps 683 mmHg 22%
19:00 +30°C° 0 mm 3 mps 683 mmHg 25%
20:00 +28°C° 0 mm 3 mps 683 mmHg 27%
21:00 +26°C° 0 mm 3 mps 683 mmHg 30%
22:00 +26°C° 0 mm 2 mps 683 mmHg 28%
23:00 +26°C° 0 mm 2 mps 683 mmHg 26%

30 Julio, Viernes

Tiempo Temperatura Precipitaciones Viento Presión Humedad
00:00 +25°C° 0 mm 2 mps 683 mmHg 25%
01:00 +25°C° 0 mm 2 mps 682 mmHg 27%
02:00 +25°C° 0 mm 2 mps 682 mmHg 30%
03:00 +24°C° 0 mm 2 mps 682 mmHg 32%
04:00 +25°C° 0 mm 2 mps 682 mmHg 32%
05:00 +26°C° 0 mm 2 mps 682 mmHg 33%
06:00 +26°C° 0 mm 2 mps 682 mmHg 33%
07:00 +28°C° 0 mm 2 mps 682 mmHg 30%
08:00 +31°C° 0 mm 3 mps 683 mmHg 27%
09:00 +34°C° 0 mm 3 mps 683 mmHg 24%
10:00 +35°C° 0 mm 4 mps 683 mmHg 22%
11:00 +36°C° 0 mm 4 mps 683 mmHg 20%
12:00 +37°C° 0 mm 4 mps 683 mmHg 18%
13:00 +37°C° 0 mm 5 mps 683 mmHg 17%
14:00 +39°C° 0 mm 6 mps 683 mmHg 17%
15:00 +39°C° 0 mm 6 mps 683 mmHg 16%
16:00 +38°C° 0 mm 6 mps 682 mmHg 16%
17:00 +36°C° 0 mm 5 mps 682 mmHg 17%
18:00 +36°C° 0 mm 5 mps 682 mmHg 17%
19:00 +33°C° 0 mm 4 mps 682 mmHg 19%
20:00 +30°C° 0 mm 3 mps 682 mmHg 21%
21:00 +27°C° 0 mm 2 mps 682 mmHg 23%
22:00 +27°C° 0 mm 2 mps 682 mmHg 22%
23:00 +27°C° 0 mm 2 mps 682 mmHg 21%

31 Julio, Sábado

Tiempo Temperatura Precipitaciones Viento Presión Humedad
00:00 +27°C° 0 mm 2 mps 682 mmHg 20%
01:00 +27°C° 0 mm 2 mps 681 mmHg 20%
02:00 +27°C° 0 mm 2 mps 681 mmHg 19%
03:00 +26°C° 0 mm 2 mps 680 mmHg 18%
04:00 +26°C° 0 mm 2 mps 680 mmHg 20%
05:00 +26°C° 0 mm 2 mps 680 mmHg 21%
06:00 +26°C° 0 mm 2 mps 681 mmHg 22%
07:00 +28°C° 0 mm 3 mps 681 mmHg 20%
08:00 +30°C° 0 mm 4 mps 681 mmHg 17%
09:00 +34°C° 0 mm 5 mps 682 mmHg 15%
10:00 +34°C° 0 mm 5 mps 682 mmHg 15%
11:00 +34°C° 0 mm 6 mps 682 mmHg 15%
12:00 +35°C° 0 mm 7 mps 682 mmHg 15%
13:00 +35°C° 0 mm 7 mps 681 mmHg 14%
14:00 +35°C° 0 mm 7 mps 681 mmHg 14%
15:00 +35°C° 0 mm 7 mps 681 mmHg 13%
16:00 +34°C° 0 mm 6 mps 681 mmHg 14%
17:00 +33°C° 0 mm 6 mps 681 mmHg 14%
18:00 +32°C° 0 mm 6 mps 681 mmHg 15%
19:00 +29°C° 0 mm 5 mps 681 mmHg 18%
20:00 +27°C° 0 mm 5 mps 681 mmHg 22%
21:00 +25°C° 0 mm 4 mps 682 mmHg 25%
22:00 +23°C° 0 mm 4 mps 681 mmHg 27%
23:00 +22°C° 0 mm 3 mps 681 mmHg 30%

1 Agosto, Domingo

Tiempo Temperatura Precipitaciones Viento Presión Humedad
00:00 +21°C° 0 mm 3 mps 681 mmHg 32%
01:00 +21°C° 0 mm 3 mps 681 mmHg 33%
02:00 +21°C° 0 mm 2 mps 681 mmHg 34%
03:00 +20°C° 0 mm 2 mps 681 mmHg 35%
04:00 +20°C° 0 mm 2 mps 681 mmHg 35%
05:00 +20°C° 0 mm 2 mps 681 mmHg 35%
06:00 +20°C° 0 mm 2 mps 682 mmHg 35%
07:00 +23°C° 0 mm 2 mps 682 mmHg 34%
08:00 +25°C° 0 mm 2 mps 682 mmHg 33%
09:00 +27°C° 0 mm 2 mps 683 mmHg 32%
10:00 +28°C° 0 mm 2 mps 683 mmHg 32%
11:00 +29°C° 0 mm 3 mps 683 mmHg 32%
12:00 +30°C° 0 mm 3 mps 683 mmHg 32%
13:00 +30°C° 0 mm 3 mps 683 mmHg 35%
14:00 +30°C° 0 mm 3 mps 683 mmHg 38%
15:00 +30°C° 0 mm 3 mps 682 mmHg 40%
16:00 +29°C° 0 mm 3 mps 682 mmHg 44%
17:00 +28°C° 0 mm 2 mps 682 mmHg 47%
18:00 +27°C° 0 mm 2 mps 682 mmHg 51%
19:00 +25°C° 0 mm 2 mps 682 mmHg 59%
20:00 +24°C° 0 mm 1 mps 682 mmHg 66%
21:00 +22°C° 0 mm 1 mps 682 mmHg 74%
22:00 +21°C° 0 mm 1 mps 682 mmHg 77%
23:00 +21°C° 0 mm 1 mps 682 mmHg 80%
Mostrar más

Necesitamos Su Consentimiento

Meteoprog y nuestros Proveedores de Servicios pueden almacenar y acceder a sus datos personales como cookies, identificadores de dispositivo u otras tecnologías similares de su dispositivo y procesar dichos datos para personalizar contenido y anuncios, además de ofrecer funciones de redes sociales y analizar el tráfico.

  • Almacenar y/o acceder a información en su dispositivo

    Se puede almacenar o acceder a cookies, identificadores de dispositivo u otra información de su dispositivo para los fines anteriormente indicados.

  • Anuncios y contenido personalizados, medición de anuncios y contenido, percepciones del público, y desarrollo de productos

    Los anuncios y el contenido pueden personalizarse en base a su perfil. Se pueden añadir más datos para personalizar mejor los anuncios y contenidos. Se puede medir el rendimiento de los anuncios y contenidos. Se puede obtener la percepción sobre el público que ha visto los anuncios y contenidos. Dichos datos pueden usarse para desarrollar o mejorar la experiencia del usuario, sistemas y software.

Al hacer clic en ‘Estoy De Acuerdo’ usted permitirá el uso de las cookies, identificadores de dispositivo, balizas web u otras tecnologías similares indicadas. Su configuración puede cambiarse desde el navegador de su dispositivo.

Para ciertos fines, los intereses legítimos pueden ser considerados por encima del consentimiento. Puede leer más sobre ello en nuestra Política de Privacidad y Cookies.